Saint Bonnet de Bellac- Haute Vienne - France
Donnes mto: vendredi, 04/11/2011
Date Horaire Temp. E. Hum. E. P.atmo. Pluie Vent Direction Direction Ensoleilleme Solaire P. de rose Temp au vent Rafales
04/11/2011 00:00 11,3 C 90 % 995,8 hPa 0,0 mm 4,0 km/h (1 Bft) S-SO 202 0 min 0 W/m 9,7 C 11,3 C 4,0 km/h (1 Bft)
04/11/2011 00:05 11,4 C 89 % 995,9 hPa 0,0 mm 7,6 km/h (2 Bft) S-SO 202 0 min 0 W/m 9,7 C 11,4 C 10,8 km/h (2 Bft)
04/11/2011 00:10 11,4 C 88 % 995,9 hPa 0,0 mm 4,3 km/h (1 Bft) S 180 0 min 0 W/m 9,5 C 11,4 C 8,3 km/h (2 Bft)
04/11/2011 00:15 11,5 C 88 % 996,0 hPa 0,0 mm 1,4 km/h (1 Bft) S 180 0 min 0 W/m 9,6 C 11,5 C 3,6 km/h (1 Bft)
04/11/2011 00:20 11,5 C 87 % 996,1 hPa 0,0 mm 3,6 km/h (1 Bft) S 180 0 min 0 W/m 9,4 C 11,5 C 4,0 km/h (1 Bft)
04/11/2011 00:25 11,4 C 87 % 996,2 hPa 0,0 mm 7,2 km/h (2 Bft) S-SE 157 0 min 0 W/m 9,3 C 11,4 C 12,6 km/h (3 Bft)
04/11/2011 00:30 11,4 C 87 % 996,3 hPa 0,0 mm 2,2 km/h (1 Bft) S 180 0 min 0 W/m 9,3 C 11,4 C 4,3 km/h (1 Bft)
04/11/2011 00:35 11,4 C 87 % 996,3 hPa 0,0 mm 1,4 km/h (1 Bft) S-SO 202 0 min 0 W/m 9,3 C 11,4 C 3,6 km/h (1 Bft)
04/11/2011 00:40 11,4 C 87 % 996,2 hPa 0,0 mm 2,5 km/h (1 Bft) S 180 0 min 0 W/m 9,3 C 11,4 C 3,6 km/h (1 Bft)
04/11/2011 00:45 11,3 C 87 % 996,0 hPa 0,0 mm 2,9 km/h (1 Bft) S 180 0 min 0 W/m 9,2 C 11,3 C 8,6 km/h (2 Bft)
04/11/2011 00:50 11,2 C 87 % 996,0 hPa 0,0 mm 2,9 km/h (1 Bft) S-SO 202 0 min 0 W/m 9,1 C 11,2 C 6,1 km/h (2 Bft)
04/11/2011 00:55 11,1 C 87 % 996,1 hPa 0,0 mm 3,6 km/h (1 Bft) S-SO 202 0 min 0 W/m 9,0 C 11,1 C 4,3 km/h (1 Bft)
04/11/2011 01:00 11,1 C 87 % 996,0 hPa 0,0 mm 5,0 km/h (1 Bft) S 180 0 min 0 W/m 9,0 C 11,1 C 7,2 km/h (2 Bft)
04/11/2011 01:05 11,1 C 87 % 995,9 hPa 0,0 mm 4,0 km/h (1 Bft) S 180 0 min 0 W/m 9,0 C 11,1 C 4,3 km/h (1 Bft)
04/11/2011 01:10 11,0 C 87 % 995,9 hPa 0,0 mm 2,9 km/h (1 Bft) S-SO 202 0 min 0 W/m 8,9 C 11,0 C 4,3 km/h (1 Bft)
04/11/2011 01:15 10,9 C 87 % 995,9 hPa 0,0 mm 2,9 km/h (1 Bft) S-SO 202 0 min 0 W/m 8,8 C 10,9 C 3,6 km/h (1 Bft)
04/11/2011 01:20 10,9 C 87 % 996,0 hPa 0,0 mm 2,9 km/h (1 Bft) S-SO 202 0 min 0 W/m 8,8 C 10,9 C 7,6 km/h (2 Bft)
04/11/2011 01:25 10,9 C 87 % 996,0 hPa 0,0 mm 2,5 km/h (1 Bft) S-SO 202 0 min 0 W/m 8,8 C 10,9 C 5,8 km/h (2 Bft)
04/11/2011 01:30 10,9 C 86 % 996,1 hPa 0,0 mm 4,0 km/h (1 Bft) S-SO 202 0 min 0 W/m 8,7 C 10,9 C 5,8 km/h (2 Bft)
04/11/2011 01:35 10,9 C 86 % 996,2 hPa 0,0 mm 1,4 km/h (1 Bft) S 180 0 min 0 W/m 8,7 C 10,9 C 6,5 km/h (2 Bft)
04/11/2011 01:40 10,9 C 86 % 996,2 hPa 0,0 mm 3,2 km/h (1 Bft) S 180 0 min 0 W/m 8,7 C 10,9 C 3,6 km/h (1 Bft)
04/11/2011 01:45 10,9 C 86 % 996,2 hPa 0,0 mm 1,8 km/h (1 Bft) S-SE 157 0 min 0 W/m 8,7 C 10,9 C 3,2 km/h (1 Bft)
04/11/2011 01:50 10,9 C 86 % 996,4 hPa 0,0 mm 1,1 km/h (1 Bft) S-SO 202 0 min 0 W/m 8,7 C 10,9 C 4,0 km/h (1 Bft)
04/11/2011 01:55 10,9 C 86 % 996,5 hPa 0,0 mm 0,0 km/h (0 Bft) S 180 0 min 0 W/m 8,7 C 10,9 C 0,0 km/h (0 Bft)
04/11/2011 02:02 10,8 C 86 % 996,5 hPa 0,0 mm 1,1 km/h (1 Bft) SE 135 0 min 0 W/m 8,6 C 10,8 C 3,6 km/h (1 Bft)
04/11/2011 02:05 10,8 C 86 % 996,6 hPa 0,0 mm 1,1 km/h (1 Bft) S-SE 157 0 min 0 W/m 8,6 C 10,8 C 3,6 km/h (1 Bft)
04/11/2011 02:10 10,7 C 86 % 996,6 hPa 0,0 mm 1,4 km/h (1 Bft) S-SE 157 0 min 0 W/m 8,5 C 10,7 C 4,0 km/h (1 Bft)
04/11/2011 02:15 10,6 C 87 % 996,7 hPa 0,0 mm 0,0 km/h (0 Bft) S-SE 157 0 min 0 W/m 8,5 C 10,6 C 0,0 km/h (0 Bft)
04/11/2011 02:20 10,5 C 87 % 996,7 hPa 0,0 mm 3,6 km/h (1 Bft) S 180 0 min 0 W/m 8,4 C 10,5 C 7,2 km/h (2 Bft)
04/11/2011 02:25 10,4 C 87 % 996,7 hPa 0,0 mm 1,1 km/h (1 Bft) S 180 0 min 0 W/m 8,3 C 10,4 C 3,6 km/h (1 Bft)
04/11/2011 02:30 10,4 C 87 % 996,7 hPa 0,0 mm 5,0 km/h (1 Bft) SO 225 0 min 0 W/m 8,3 C 10,4 C 7,9 km/h (2 Bft)
04/11/2011 02:35 10,5 C 87 % 996,7 hPa 0,0 mm 1,8 km/h (1 Bft) S 180 0 min 0 W/m 8,4 C 10,5 C 3,6 km/h (1 Bft)
04/11/2011 02:40 10,6 C 87 % 996,7 hPa 0,0 mm 1,8 km/h (1 Bft) SE 135 0 min 0 W/m 8,5 C 10,6 C 4,0 km/h (1 Bft)
04/11/2011 02:45 10,6 C 87 % 996,8 hPa 0,0 mm 6,1 km/h (2 Bft) S-SO 202 0 min 0 W/m 8,5 C 10,6 C 8,3 km/h (2 Bft)
04/11/2011 02:50 10,6 C 87 % 996,8 hPa 0,0 mm 2,9 km/h (1 Bft) SO 225 0 min 0 W/m 8,5 C 10,6 C 9,0 km/h (2 Bft)
04/11/2011 02:55 10,6 C 87 % 996,7 hPa 0,0 mm 1,8 km/h (1 Bft) S 180 0 min 0 W/m 8,5 C 10,6 C 1,8 km/h (1 Bft)
04/11/2011 03:00 10,6 C 87 % 996,7 hPa 0,0 mm 0,7 km/h (0 Bft) S-SO 202 0 min 0 W/m 8,5 C 10,6 C 3,2 km/h (1 Bft)
04/11/2011 03:05 10,6 C 86 % 996,7 hPa 0,0 mm 3,2 km/h (1 Bft) S-SO 202 0 min 0 W/m 8,4 C 10,6 C 6,1 km/h (2 Bft)
04/11/2011 03:10 10,6 C 86 % 996,8 hPa 0,0 mm 4,3 km/h (1 Bft) S-SO 202 0 min 0 W/m 8,4 C 10,6 C 4,3 km/h (1 Bft)
04/11/2011 03:15 10,6 C 87 % 996,9 hPa 0,0 mm 0,7 km/h (0 Bft) S-SE 157 0 min 0 W/m 8,5 C 10,6 C 4,0 km/h (1 Bft)
04/11/2011 03:20 10,8 C 86 % 996,9 hPa 0,0 mm 3,2 km/h (1 Bft) S 180 0 min 0 W/m 8,6 C 10,8 C 4,0 km/h (1 Bft)
04/11/2011 03:25 10,8 C 86 % 996,8 hPa 0,0 mm 1,8 km/h (1 Bft) S-SE 157 0 min 0 W/m 8,6 C 10,8 C 6,1 km/h (2 Bft)
04/11/2011 03:30 10,7 C 86 % 997,1 hPa 0,0 mm 2,9 km/h (1 Bft) S-SE 157 0 min 0 W/m 8,5 C 10,7 C 4,3 km/h (1 Bft)
04/11/2011 03:35 10,6 C 86 % 997,0 hPa 0,0 mm 3,2 km/h (1 Bft) S-SE 157 0 min 0 W/m 8,4 C 10,6 C 6,1 km/h (2 Bft)
04/11/2011 03:40 10,6 C 86 % 996,8 hPa 0,0 mm 2,5 km/h (1 Bft) SE 135 0 min 0 W/m 8,4 C 10,6 C 4,3 km/h (1 Bft)
04/11/2011 03:45 10,6 C 86 % 996,7 hPa 0,0 mm 2,2 km/h (1 Bft) S-SE 157 0 min 0 W/m 8,4 C 10,6 C 3,6 km/h (1 Bft)
04/11/2011 03:50 10,6 C 87 % 996,6 hPa 0,0 mm 5,4 km/h (2 Bft) S-SE 157 0 min 0 W/m 8,5 C 10,6 C 7,2 km/h (2 Bft)
04/11/2011 03:55 10,7 C 86 % 996,7 hPa 0,0 mm 2,9 km/h (1 Bft) S-SE 157 0 min 0 W/m 8,5 C 10,7 C 4,0 km/h (1 Bft)
04/11/2011 04:00 10,6 C 86 % 996,7 hPa 0,0 mm 3,6 km/h (1 Bft) S 180 0 min 0 W/m 8,4 C 10,6 C 3,6 km/h (1 Bft)
04/11/2011 04:05 10,6 C 86 % 996,8 hPa 0,0 mm 5,8 km/h (2 Bft) S 180 0 min 0 W/m 8,4 C 10,6 C 10,8 km/h (2 Bft)
04/11/2011 04:10 10,7 C 86 % 996,9 hPa 0,0 mm 1,4 km/h (1 Bft) S-SE 157 0 min 0 W/m 8,5 C 10,7 C 3,2 km/h (1 Bft)
04/11/2011 04:15 10,8 C 86 % 996,9 hPa 0,0 mm 5,8 km/h (2 Bft) S-SO 202 0 min 0 W/m 8,6 C 10,8 C 8,3 km/h (2 Bft)
04/11/2011 04:20 10,8 C 86 % 996,9 hPa 0,0 mm 2,2 km/h (1 Bft) S-SE 157 0 min 0 W/m 8,6 C 10,8 C 4,0 km/h (1 Bft)
04/11/2011 04:25 10,6 C 86 % 996,9 hPa 0,0 mm 4,3 km/h (1 Bft) S-SE 157 0 min 0 W/m 8,4 C 10,6 C 10,8 km/h (2 Bft)
04/11/2011 04:30 10,6 C 86 % 997,0 hPa 0,0 mm 0,0 km/h (0 Bft) S-SO 202 0 min 0 W/m 8,4 C 10,6 C 0,0 km/h (0 Bft)
04/11/2011 04:35 10,6 C 86 % 996,9 hPa 0,0 mm 7,2 km/h (2 Bft) S 180 0 min 0 W/m 8,4 C 10,6 C 10,4 km/h (2 Bft)
04/11/2011 04:40 10,6 C 86 % 997,0 hPa 0,0 mm 5,4 km/h (2 Bft) S-SE 157 0 min 0 W/m 8,4 C 10,6 C 5,4 km/h (2 Bft)
04/11/2011 04:45 10,6 C 86 % 997,0 hPa 0,0 mm 5,8 km/h (2 Bft) SO 225 0 min 0 W/m 8,4 C 10,6 C 8,6 km/h (2 Bft)
04/11/2011 04:50 10,6 C 86 % 997,1 hPa 0,0 mm 5,0 km/h (1 Bft) S-SO 202 0 min 0 W/m 8,4 C 10,6 C 5,0 km/h (1 Bft)
04/11/2011 04:55 10,5 C 86 % 997,2 hPa 0,0 mm 6,8 km/h (2 Bft) S 180 0 min 0 W/m 8,3 C 10,5 C 11,2 km/h (2 Bft)
04/11/2011 05:00 10,6 C 86 % 997,3 hPa 0,0 mm 2,9 km/h (1 Bft) S 180 0 min 0 W/m 8,4 C 10,6 C 4,0 km/h (1 Bft)
04/11/2011 05:05 10,6 C 86 % 997,4 hPa 0,0 mm 4,0 km/h (1 Bft) S-SO 202 0 min 0 W/m 8,4 C 10,6 C 5,8 km/h (2 Bft)
04/11/2011 05:10 10,6 C 85 % 997,4 hPa 0,0 mm 1,8 km/h (1 Bft) S 180 0 min 0 W/m 8,2 C 10,6 C 4,3 km/h (1 Bft)
04/11/2011 05:15 10,7 C 85 % 997,5 hPa 0,0 mm 4,7 km/h (1 Bft) SO 225 0 min 0 W/m 8,3 C 10,7 C 9,0 km/h (2 Bft)
04/11/2011 05:20 10,8 C 84 % 997,6 hPa 0,0 mm 5,4 km/h (2 Bft) S 180 0 min 0 W/m 8,2 C 10,8 C 6,8 km/h (2 Bft)
04/11/2011 05:25 10,8 C 84 % 997,5 hPa 0,0 mm 2,9 km/h (1 Bft) S 180 0 min 0 W/m 8,2 C 10,8 C 4,0 km/h (1 Bft)
04/11/2011 05:30 10,8 C 84 % 997,5 hPa 0,0 mm 4,0 km/h (1 Bft) S-SO 202 0 min 0 W/m 8,2 C 10,8 C 6,5 km/h (2 Bft)
04/11/2011 05:35 10,8 C 84 % 997,5 hPa 0,0 mm 7,6 km/h (2 Bft) S-SO 202 0 min 0 W/m 8,2 C 10,8 C 7,6 km/h (2 Bft)
04/11/2011 05:40 10,8 C 84 % 997,6 hPa 0,0 mm 3,2 km/h (1 Bft) S 180 0 min 0 W/m 8,2 C 10,8 C 4,0 km/h (1 Bft)
04/11/2011 05:45 10,8 C 83 % 997,6 hPa 0,0 mm 3,6 km/h (1 Bft) S-SO 202 0 min 0 W/m 8,0 C 10,8 C 7,9 km/h (2 Bft)
04/11/2011 05:50 10,8 C 83 % 997,6 hPa 0,0 mm 1,8 km/h (1 Bft) S 180 0 min 0 W/m 8,0 C 10,8 C 2,9 km/h (1 Bft)
04/11/2011 05:55 10,7 C 83 % 997,7 hPa 0,0 mm 2,5 km/h (1 Bft) S-SO 202 0 min 0 W/m 7,9 C 10,7 C 4,3 km/h (1 Bft)
04/11/2011 06:00 10,6 C 83 % 997,8 hPa 0,0 mm 3,6 km/h (1 Bft) S-SE 157 0 min 0 W/m 7,8 C 10,6 C 4,3 km/h (1 Bft)
04/11/2011 06:05 10,7 C 83 % 997,8 hPa 0,0 mm 3,6 km/h (1 Bft) S-SO 202 0 min 0 W/m 7,9 C 10,7 C 7,2 km/h (2 Bft)
04/11/2011 06:10 10,7 C 84 % 997,9 hPa 0,0 mm 4,0 km/h (1 Bft) S 180 0 min 0 W/m 8,1 C 10,7 C 4,0 km/h (1 Bft)
04/11/2011 06:15 10,8 C 83 % 998,0 hPa 0,0 mm 7,2 km/h (2 Bft) S 180 0 min 0 W/m 8,0 C 10,8 C 7,2 km/h (2 Bft)
04/11/2011 06:20 10,9 C 83 % 998,0 hPa 0,0 mm 7,9 km/h (2 Bft) S-SO 202 0 min 0 W/m 8,1 C 10,9 C 7,9 km/h (2 Bft)
04/11/2011 06:25 10,9 C 83 % 998,0 hPa 0,0 mm 2,9 km/h (1 Bft) S-SO 202 0 min 0 W/m 8,1 C 10,9 C 6,5 km/h (2 Bft)
04/11/2011 06:30 11,1 C 82 % 998,0 hPa 0,0 mm 4,3 km/h (1 Bft) S 180 0 min 0 W/m 8,1 C 11,1 C 6,5 km/h (2 Bft)
04/11/2011 06:35 11,1 C 82 % 998,0 hPa 0,0 mm 2,5 km/h (1 Bft) S 180 0 min 0 W/m 8,1 C 11,1 C 7,2 km/h (2 Bft)
04/11/2011 06:40 11,1 C 82 % 998,0 hPa 0,0 mm 4,7 km/h (1 Bft) S-SO 202 0 min 0 W/m 8,1 C 11,1 C 7,2 km/h (2 Bft)
04/11/2011 06:45 11,1 C 82 % 998,0 hPa 0,0 mm 4,0 km/h (1 Bft) S-SE 157 0 min 0 W/m 8,1 C 11,1 C 8,3 km/h (2 Bft)
04/11/2011 06:50 10,9 C 82 % 997,9 hPa 0,0 mm 3,6 km/h (1 Bft) S-SO 202 0 min 0 W/m 7,9 C 10,9 C 3,6 km/h (1 Bft)
04/11/2011 06:55 10,9 C 82 % 997,9 hPa 0,0 mm 2,5 km/h (1 Bft) S-SO 202 0 min 0 W/m 7,9 C 10,9 C 6,5 km/h (2 Bft)
04/11/2011 07:00 10,8 C 82 % 998,0 hPa 0,0 mm 4,0 km/h (1 Bft) S-SO 202 0 min 0 W/m 7,9 C 10,8 C 4,0 km/h (1 Bft)
04/11/2011 07:05 10,6 C 83 % 997,9 hPa 0,0 mm 4,3 km/h (1 Bft) S 180 0 min 0 W/m 7,8 C 10,6 C 4,3 km/h (1 Bft)
04/11/2011 07:10 10,7 C 83 % 997,9 hPa 0,0 mm 4,0 km/h (1 Bft) S 180 0 min 0 W/m 7,9 C 10,7 C 7,6 km/h (2 Bft)
04/11/2011 07:15 10,6 C 83 % 997,9 hPa 0,0 mm 1,1 km/h (1 Bft) S 180 0 min 0 W/m 7,8 C 10,6 C 3,2 km/h (1 Bft)
04/11/2011 07:20 10,6 C 83 % 997,9 hPa 0,0 mm 1,1 km/h (1 Bft) S 180 0 min 0 W/m 7,8 C 10,6 C 5,8 km/h (2 Bft)
04/11/2011 07:25 10,6 C 83 % 997,8 hPa 0,0 mm 1,8 km/h (1 Bft) S-SO 202 0 min 0 W/m 7,8 C 10,6 C 2,9 km/h (1 Bft)
04/11/2011 07:30 10,5 C 83 % 997,9 hPa 0,0 mm 1,4 km/h (1 Bft) S 180 0 min 0 W/m 7,7 C 10,5 C 3,2 km/h (1 Bft)
04/11/2011 07:35 10,3 C 83 % 997,9 hPa 0,0 mm 0,7 km/h (0 Bft) S 180 0 min 0 W/m 7,5 C 10,3 C 0,7 km/h (0 Bft)
04/11/2011 07:40 10,3 C 84 % 997,9 hPa 0,0 mm 2,5 km/h (1 Bft) S 180 0 min 0 W/m 7,7 C 10,3 C 2,5 km/h (1 Bft)
04/11/2011 07:45 10,2 C 84 % 997,9 hPa 0,0 mm 0,0 km/h (0 Bft) S-SO 202 0 min 0 W/m 7,6 C 10,2 C 0,0 km/h (0 Bft)
04/11/2011 07:50 10,0 C 84 % 997,9 hPa 0,0 mm 1,8 km/h (1 Bft) S 180 0 min 0 W/m 7,4 C 10,0 C 4,0 km/h (1 Bft)
04/11/2011 07:55 9,8 C 85 % 997,9 hPa 0,0 mm 0,0 km/h (0 Bft) S-SO 202 0 min 0 W/m 7,4 C 9,8 C 2,9 km/h (1 Bft)
04/11/2011 08:00 9,8 C 85 % 997,9 hPa 0,0 mm 1,8 km/h (1 Bft) S-SE 157 0 min 0 W/m 7,4 C 9,8 C 4,0 km/h (1 Bft)
04/11/2011 08:05 9,6 C 85 % 998,1 hPa 0,0 mm 1,4 km/h (1 Bft) SE 135 0 min 0 W/m 7,2 C 9,6 C 4,3 km/h (1 Bft)
04/11/2011 08:10 9,4 C 86 % 998,2 hPa 0,0 mm 1,1 km/h (1 Bft) S-SE 157 0 min 0 W/m 7,2 C 9,4 C 1,1 km/h (1 Bft)
04/11/2011 08:15 9,4 C 86 % 998,3 hPa 0,0 mm 0,0 km/h (0 Bft) S-SE 157 0 min 0 W/m 7,2 C 9,4 C 0,0 km/h (0 Bft)
04/11/2011 08:20 9,4 C 86 % 998,2 hPa 0,0 mm 0,0 km/h (0 Bft) SE 135 0 min 0 W/m 7,2 C 9,4 C 0,0 km/h (0 Bft)
04/11/2011 08:25 9,4 C 87 % 998,2 hPa 0,0 mm 0,0 km/h (0 Bft) SE 135 0 min 0 W/m 7,3 C 9,4 C 0,0 km/h (0 Bft)
04/11/2011 08:30 9,3 C 87 % 998,1 hPa 0,0 mm 0,0 km/h (0 Bft) SE 135 0 min 0 W/m 7,2 C 9,3 C 0,0 km/h (0 Bft)
04/11/2011 08:35 9,2 C 86 % 998,1 hPa 0,0 mm 0,7 km/h (0 Bft) E 90 0 min 0 W/m 7,0 C 9,2 C 3,6 km/h (1 Bft)
04/11/2011 08:40 9,1 C 87 % 998,0 hPa 0,0 mm 0,0 km/h (0 Bft) E-NE 67 0 min 0 W/m 7,1 C 9,1 C 0,0 km/h (0 Bft)
04/11/2011 08:45 9,1 C 87 % 998,1 hPa 0,0 mm 2,9 km/h (1 Bft) E-SE 112 0 min 0 W/m 7,1 C 9,1 C 4,3 km/h (1 Bft)
04/11/2011 08:50 9,3 C 87 % 998,0 hPa 0,0 mm 4,0 km/h (1 Bft) E-SE 112 0 min 0 W/m 7,2 C 9,3 C 4,3 km/h (1 Bft)
04/11/2011 08:55 9,7 C 88 % 998,2 hPa 0,0 mm 3,6 km/h (1 Bft) E 90 0 min 0 W/m 7,8 C 9,7 C 7,2 km/h (2 Bft)
04/11/2011 09:00 9,9 C 89 % 998,2 hPa 0,0 mm 6,8 km/h (2 Bft) E-SE 112 0 min 0 W/m 8,2 C 9,2 C 7,9 km/h (2 Bft)
04/11/2011 09:05 10,2 C 88 % 998,4 hPa 0,0 mm 8,6 km/h (2 Bft) E-SE 112 0 min 0 W/m 8,3 C 10,2 C 11,9 km/h (2 Bft)
04/11/2011 09:10 10,4 C 89 % 998,9 hPa 0,0 mm 4,7 km/h (1 Bft) E-SE 112 0 min 0 W/m 8,7 C 10,4 C 7,9 km/h (2 Bft)
04/11/2011 09:15 10,6 C 89 % 999,0 hPa 0,0 mm 7,6 km/h (2 Bft) SE 135 0 min 0 W/m 8,9 C 10,6 C 7,9 km/h (2 Bft)
04/11/2011 09:20 10,8 C 88 % 998,8 hPa 0,0 mm 5,8 km/h (2 Bft) E 90 0 min 0 W/m 8,9 C 10,8 C 8,6 km/h (2 Bft)
04/11/2011 09:25 10,9 C 88 % 998,8 hPa 0,0 mm 3,6 km/h (1 Bft) E 90 0 min 0 W/m 9,0 C 10,9 C 3,6 km/h (1 Bft)
04/11/2011 09:30 11,1 C 88 % 998,8 hPa 0,0 mm 0,0 km/h (0 Bft) E-SE 112 0 min 0 W/m 9,2 C 11,1 C 3,2 km/h (1 Bft)
04/11/2011 09:35 11,3 C 88 % 998,8 hPa 0,0 mm 4,0 km/h (1 Bft) SE 135 0 min 0 W/m 9,4 C 11,3 C 7,2 km/h (2 Bft)
04/11/2011 09:40 11,5 C 88 % 998,8 hPa 0,0 mm 5,4 km/h (2 Bft) SE 135 0 min 0 W/m 9,6 C 11,5 C 8,6 km/h (2 Bft)
04/11/2011 09:45 11,8 C 87 % 999,0 hPa 0,0 mm 4,0 km/h (1 Bft) SE 135 0 min 0 W/m 9,7 C 11,8 C 7,2 km/h (2 Bft)
04/11/2011 09:50 12,2 C 87 % 999,1 hPa 0,0 mm 5,8 km/h (2 Bft) E-SE 112 0 min 0 W/m 10,1 C 12,2 C 6,8 km/h (2 Bft)
04/11/2011 09:55 12,6 C 86 % 999,0 hPa 0,0 mm 4,3 km/h (1 Bft) SE 135 0 min 0 W/m 10,3 C 12,6 C 9,4 km/h (2 Bft)
04/11/2011 10:00 13,1 C 85 % 999,0 hPa 0,0 mm 4,3 km/h (1 Bft) E-SE 112 0 min 0 W/m 10,6 C 13,1 C 4,3 km/h (1 Bft)
04/11/2011 10:05 13,5 C 84 % 999,0 hPa 0,0 mm 4,7 km/h (1 Bft) SE 135 0 min 0 W/m 10,8 C 13,5 C 7,6 km/h (2 Bft)
04/11/2011 10:10 14,1 C 83 % 999,2 hPa 0,0 mm 2,5 km/h (1 Bft) E-SE 112 0 min 0 W/m 11,3 C 14,1 C 4,3 km/h (1 Bft)
04/11/2011 10:15 14,3 C 83 % 999,0 hPa 0,0 mm 0,7 km/h (0 Bft) E-SE 112 0 min 0 W/m 11,5 C 14,3 C 3,2 km/h (1 Bft)
04/11/2011 10:20 14,8 C 82 % 999,0 hPa 0,0 mm 1,4 km/h (1 Bft) SE 135 0 min 0 W/m 11,8 C 14,8 C 1,4 km/h (1 Bft)
04/11/2011 10:25 15,1 C 80 % 999,1 hPa 0,0 mm 1,4 km/h (1 Bft) E-SE 112 0 min 0 W/m 11,7 C 15,1 C 3,6 km/h (1 Bft)
04/11/2011 10:30 15,3 C 80 % 999,0 hPa 0,0 mm 3,6 km/h (1 Bft) E 90 0 min 0 W/m 11,9 C 15,3 C 6,8 km/h (2 Bft)
04/11/2011 10:35 15,4 C 79 % 999,1 hPa 0,0 mm 5,8 km/h (2 Bft) E-NE 67 0 min 0 W/m 11,8 C 15,4 C 7,2 km/h (2 Bft)
04/11/2011 10:40 15,7 C 79 % 999,1 hPa 0,0 mm 2,2 km/h (1 Bft) E 90 0 min 0 W/m 12,1 C 15,7 C 4,0 km/h (1 Bft)
04/11/2011 10:45 16,2 C 79 % 999,1 hPa 0,0 mm 0,4 km/h (0 Bft) E-SE 112 0 min 0 W/m 12,6 C 16,2 C 2,9 km/h (1 Bft)
04/11/2011 10:50 16,6 C 77 % 999,2 hPa 0,0 mm 2,2 km/h (1 Bft) E 90 0 min 0 W/m 12,5 C 16,6 C 2,9 km/h (1 Bft)
04/11/2011 10:55 17,1 C 76 % 999,2 hPa 0,0 mm 2,5 km/h (1 Bft) E-SE 112 0 min 0 W/m 12,8 C 17,1 C 4,3 km/h (1 Bft)
04/11/2011 11:00 17,4 C 75 % 999,1 hPa 0,0 mm 0,4 km/h (0 Bft) E-NE 67 0 min 0 W/m 12,9 C 17,4 C 0,4 km/h (0 Bft)
04/11/2011 11:05 17,7 C 74 % 999,1 hPa 0,0 mm 5,0 km/h (1 Bft) E-SE 112 0 min 0 W/m 13,0 C 17,7 C 7,2 km/h (2 Bft)
04/11/2011 11:10 17,8 C 73 % 999,2 hPa 0,0 mm 2,9 km/h (1 Bft) SE 135 0 min 0 W/m 12,9 C 17,8 C 2,9 km/h (1 Bft)
04/11/2011 11:15 17,6 C 73 % 999,3 hPa 0,0 mm 0,7 km/h (0 Bft) E-SE 112 0 min 0 W/m 12,7 C 17,6 C 3,6 km/h (1 Bft)
04/11/2011 11:20 17,4 C 73 % 999,1 hPa 0,0 mm 0,0 km/h (0 Bft) E-SE 112 0 min 0 W/m 12,5 C 17,4 C 0,0 km/h (0 Bft)
04/11/2011 11:25 17,4 C 73 % 999,1 hPa 0,0 mm 0,0 km/h (0 Bft) E-SE 112 0 min 0 W/m 12,5 C 17,4 C 2,9 km/h (1 Bft)
04/11/2011 11:30 17,4 C 74 % 1000,1 hPa 0,0 mm 0,0 km/h (0 Bft) E-NE 67 0 min 0 W/m 12,7 C 17,4 C 0,0 km/h (0 Bft)
04/11/2011 11:35 17,3 C 73 % 1000,1 hPa 0,0 mm 0,0 km/h (0 Bft) E-NE 67 0 min 0 W/m 12,4 C 17,3 C 0,0 km/h (0 Bft)
04/11/2011 11:40 17,2 C 73 % 1000,0 hPa 0,0 mm 0,0 km/h (0 Bft) E-NE 67 0 min 0 W/m 12,3 C 17,2 C 3,2 km/h (1 Bft)
04/11/2011 11:45 17,5 C 73 % 1000,0 hPa 0,0 mm 0,4 km/h (0 Bft) E-NE 67 0 min 0 W/m 12,6 C 17,5 C 0,4 km/h (0 Bft)
04/11/2011 11:50 17,9 C 72 % 999,9 hPa 0,0 mm 0,7 km/h (0 Bft) E 90 0 min 0 W/m 12,8 C 17,9 C 4,0 km/h (1 Bft)
04/11/2011 11:55 18,3 C 70 % 999,6 hPa 0,0 mm 2,5 km/h (1 Bft) E-NE 67 0 min 0 W/m 12,7 C 18,3 C 3,2 km/h (1 Bft)
04/11/2011 12:00 18,5 C 67 % 999,6 hPa 0,0 mm 2,9 km/h (1 Bft) E 90 0 min 0 W/m 12,3 C 18,5 C 2,9 km/h (1 Bft)
04/11/2011 12:05 18,5 C 66 % 999,6 hPa 0,0 mm 5,0 km/h (1 Bft) E-NE 67 0 min 0 W/m 12,0 C 18,5 C 8,6 km/h (2 Bft)
04/11/2011 12:10 18,4 C 66 % 999,5 hPa 0,0 mm 3,6 km/h (1 Bft) E-SE 112 0 min 0 W/m 11,9 C 18,4 C 6,5 km/h (2 Bft)
04/11/2011 12:15 18,2 C 65 % 999,6 hPa 0,0 mm 2,2 km/h (1 Bft) E 90 0 min 0 W/m 11,5 C 18,2 C 4,3 km/h (1 Bft)
04/11/2011 12:20 18,2 C 65 % 999,6 hPa 0,0 mm 1,4 km/h (1 Bft) E 90 0 min 0 W/m 11,5 C 18,2 C 3,6 km/h (1 Bft)
04/11/2011 12:25 18,4 C 63 % 999,5 hPa 0,0 mm 2,2 km/h (1 Bft) E-SE 112 0 min 0 W/m 11,2 C 18,4 C 4,0 km/h (1 Bft)
04/11/2011 12:30 18,7 C 62 % 999,7 hPa 0,0 mm 1,8 km/h (1 Bft) E-SE 112 0 min 0 W/m 11,3 C 18,7 C 4,3 km/h (1 Bft)
04/11/2011 12:35 18,9 C 61 % 999,7 hPa 0,0 mm 4,3 km/h (1 Bft) SE 135 0 min 0 W/m 11,2 C 18,9 C 7,6 km/h (2 Bft)
04/11/2011 12:40 18,9 C 60 % 999,7 hPa 0,0 mm 2,9 km/h (1 Bft) E-SE 112 0 min 0 W/m 11,0 C 18,9 C 6,1 km/h (2 Bft)
04/11/2011 12:45 18,9 C 59 % 999,7 hPa 0,0 mm 2,2 km/h (1 Bft) E-SE 112 0 min 0 W/m 10,7 C 18,9 C 4,0 km/h (1 Bft)
04/11/2011 12:50 18,9 C 59 % 999,7 hPa 0,0 mm 1,8 km/h (1 Bft) E-SE 112 0 min 0 W/m 10,7 C 18,9 C 3,6 km/h (1 Bft)
04/11/2011 12:55 19,1 C 57 % 999,8 hPa 0,0 mm 2,9 km/h (1 Bft) E 90 0 min 0 W/m 10,4 C 19,1 C 6,8 km/h (2 Bft)
04/11/2011 13:00 19,3 C 57 % 999,9 hPa 0,0 mm 0,4 km/h (0 Bft) S-SE 157 0 min 0 W/m 10,6 C 19,3 C 3,2 km/h (1 Bft)
04/11/2011 13:05 19,4 C 54 % 999,6 hPa 0,0 mm 1,8 km/h (1 Bft) SE 135 0 min 0 W/m 9,8 C 19,4 C 4,3 km/h (1 Bft)
04/11/2011 13:10 19,6 C 53 % 999,5 hPa 0,0 mm 0,0 km/h (0 Bft) S 180 0 min 0 W/m 9,8 C 19,6 C 0,0 km/h (0 Bft)
04/11/2011 13:15 19,8 C 53 % 999,5 hPa 0,0 mm 0,0 km/h (0 Bft) S 180 0 min 0 W/m 9,9 C 19,8 C 0,0 km/h (0 Bft)
04/11/2011 13:20 20,1 C 52 % 999,5 hPa 0,0 mm 0,0 km/h (0 Bft) O-NO 292 0 min 0 W/m 9,9 C 20,1 C 0,0 km/h (0 Bft)
04/11/2011 13:25 20,2 C 51 % 999,4 hPa 0,0 mm 0,0 km/h (0 Bft) O-NO 292 0 min 0 W/m 9,7 C 20,2 C 0,0 km/h (0 Bft)
04/11/2011 13:30 20,2 C 51 % 999,4 hPa 0,0 mm 1,1 km/h (1 Bft) NO 315 0 min 0 W/m 9,7 C 20,2 C 4,0 km/h (1 Bft)
04/11/2011 13:35 20,3 C 51 % 999,4 hPa 0,0 mm 0,4 km/h (0 Bft) N 360 0 min 0 W/m 9,8 C 20,3 C 0,4 km/h (0 Bft)
04/11/2011 13:40 20,3 C 53 % 999,5 hPa 0,0 mm 0,0 km/h (0 Bft) N-NO 337 0 min 0 W/m 10,4 C 20,3 C 0,0 km/h (0 Bft)
04/11/2011 13:45 20,2 C 52 % 999,6 hPa 0,0 mm 0,0 km/h (0 Bft) N-NO 337 0 min 0 W/m 10,0 C 20,2 C 0,0 km/h (0 Bft)
04/11/2011 13:50 20,0 C 52 % 999,7 hPa 0,0 mm 0,0 km/h (0 Bft) N-NO 337 0 min 0 W/m 9,8 C 20,0 C 0,0 km/h (0 Bft)
04/11/2011 13:55 19,8 C 52 % 999,6 hPa 0,0 mm 1,1 km/h (1 Bft) N-NO 337 0 min 0 W/m 9,7 C 19,8 C 3,2 km/h (1 Bft)
04/11/2011 14:00 19,7 C 53 % 999,5 hPa 0,0 mm 4,3 km/h (1 Bft) NO 315 0 min 0 W/m 9,8 C 19,7 C 4,3 km/h (1 Bft)
04/11/2011 14:05 19,5 C 52 % 999,4 hPa 0,0 mm 0,0 km/h (0 Bft) N-NE 22 0 min 0 W/m 9,4 C 19,5 C 3,2 km/h (1 Bft)
04/11/2011 14:10 19,6 C 54 % 999,3 hPa 0,0 mm 4,3 km/h (1 Bft) NO 315 0 min 0 W/m 10,0 C 19,6 C 6,5 km/h (2 Bft)
04/11/2011 14:15 19,6 C 54 % 999,3 hPa 0,0 mm 0,0 km/h (0 Bft) NO 315 0 min 0 W/m 10,0 C 19,6 C 0,0 km/h (0 Bft)
04/11/2011 14:20 19,4 C 54 % 999,4 hPa 0,0 mm 1,4 km/h (1 Bft) NO 315 0 min 0 W/m 9,8 C 19,4 C 6,5 km/h (2 Bft)
04/11/2011 14:25 19,4 C 54 % 999,3 hPa 0,0 mm 1,8 km/h (1 Bft) N 360 0 min 0 W/m 9,8 C 19,4 C 4,3 km/h (1 Bft)
04/11/2011 14:30 19,4 C 54 % 999,3 hPa 0,0 mm 1,4 km/h (1 Bft) N 360 0 min 0 W/m 9,8 C 19,4 C 4,0 km/h (1 Bft)
04/11/2011 14:35 19,3 C 54 % 999,2 hPa 0,0 mm 0,0 km/h (0 Bft) N 360 0 min 0 W/m 9,8 C 19,3 C 0,0 km/h (0 Bft)
04/11/2011 14:40 19,2 C 55 % 999,0 hPa 0,0 mm 3,2 km/h (1 Bft) N-NO 337 0 min 0 W/m 9,9 C 19,2 C 4,3 km/h (1 Bft)
04/11/2011 14:45 19,1 C 55 % 999,0 hPa 0,0 mm 0,0 km/h (0 Bft) NO 315 0 min 0 W/m 9,8 C 19,1 C 0,0 km/h (0 Bft)
04/11/2011 14:50 19,1 C 55 % 999,1 hPa 0,0 mm 1,4 km/h (1 Bft) N 360 0 min 0 W/m 9,8 C 19,1 C 4,3 km/h (1 Bft)
04/11/2011 14:55 18,8 C 55 % 998,9 hPa 0,0 mm 2,9 km/h (1 Bft) N-NE 22 0 min 0 W/m 9,6 C 18,8 C 4,3 km/h (1 Bft)
04/11/2011 15:00 18,7 C 55 % 998,8 hPa 0,0 mm 0,0 km/h (0 Bft) N-NE 22 0 min 0 W/m 9,5 C 18,7 C 0,0 km/h (0 Bft)
04/11/2011 15:05 18,4 C 55 % 998,6 hPa 0,0 mm 3,6 km/h (1 Bft) NE 45 0 min 0 W/m 9,2 C 18,4 C 4,0 km/h (1 Bft)
04/11/2011 15:10 18,2 C 56 % 998,6 hPa 0,0 mm 0,0 km/h (0 Bft) N-NE 22 0 min 0 W/m 9,3 C 18,2 C 0,0 km/h (0 Bft)
04/11/2011 15:15 18,0 C 56 % 998,5 hPa 0,0 mm 0,0 km/h (0 Bft) N-NE 22 0 min 0 W/m 9,1 C 18,0 C 0,0 km/h (0 Bft)
04/11/2011 15:20 17,8 C 57 % 998,6 hPa 0,0 mm 0,0 km/h (0 Bft) N-NE 22 0 min 0 W/m 9,2 C 17,8 C 0,0 km/h (0 Bft)
04/11/2011 15:25 17,6 C 58 % 998,5 hPa 0,0 mm 1,4 km/h (1 Bft) N 360 0 min 0 W/m 9,2 C 17,6 C 4,0 km/h (1 Bft)
04/11/2011 15:30 17,5 C 59 % 998,4 hPa 0,0 mm 1,8 km/h (1 Bft) N 360 0 min 0 W/m 9,4 C 17,5 C 3,6 km/h (1 Bft)
04/11/2011 15:35 17,4 C 59 % 998,2 hPa 0,0 mm 2,9 km/h (1 Bft) N-NE 22 0 min 0 W/m 9,3 C 17,4 C 5,8 km/h (2 Bft)
04/11/2011 15:40 17,2 C 59 % 998,1 hPa 0,0 mm 0,7 km/h (0 Bft) N-NE 22 0 min 0 W/m 9,1 C 17,2 C 0,7 km/h (0 Bft)
04/11/2011 15:45 17,0 C 60 % 998,3 hPa 0,0 mm 1,1 km/h (1 Bft) N-NE 22 0 min 0 W/m 9,2 C 17,0 C 4,0 km/h (1 Bft)
04/11/2011 15:50 16,8 C 60 % 998,1 hPa 0,0 mm 2,5 km/h (1 Bft) N-NE 22 0 min 0 W/m 9,0 C 16,8 C 4,3 km/h (1 Bft)
04/11/2011 15:55 16,6 C 61 % 998,2 hPa 0,0 mm 1,4 km/h (1 Bft) N-NE 22 0 min 0 W/m 9,0 C 16,6 C 3,2 km/h (1 Bft)
04/11/2011 16:00 16,5 C 61 % 998,2 hPa 0,0 mm 0,4 km/h (0 Bft) N-NE 22 0 min 0 W/m 9,0 C 16,5 C 3,2 km/h (1 Bft)
04/11/2011 16:05 16,4 C 62 % 998,3 hPa 0,0 mm 0,7 km/h (0 Bft) N-NE 22 0 min 0 W/m 9,1 C 16,4 C 4,0 km/h (1 Bft)
04/11/2011 16:10 16,3 C 62 % 998,5 hPa 0,0 mm 0,0 km/h (0 Bft) N-NE 22 0 min 0 W/m 9,0 C 16,3 C 0,0 km/h (0 Bft)
04/11/2011 16:15 16,1 C 63 % 998,8 hPa 0,0 mm 0,0 km/h (0 Bft) N-NE 22 0 min 0 W/m 9,1 C 16,1 C 0,0 km/h (0 Bft)
04/11/2011 16:20 16,1 C 63 % 998,7 hPa 0,0 mm 0,4 km/h (0 Bft) N-NE 22 0 min 0 W/m 9,1 C 16,1 C 0,4 km/h (0 Bft)
04/11/2011 16:25 15,9 C 63 % 998,8 hPa 0,0 mm 0,0 km/h (0 Bft) N-NE 22 0 min 0 W/m 8,9 C 15,9 C 0,0 km/h (0 Bft)
04/11/2011 16:30 15,8 C 63 % 998,8 hPa 0,0 mm 2,2 km/h (1 Bft) N-NE 22 0 min 0 W/m 8,8 C 15,8 C 3,2 km/h (1 Bft)
04/11/2011 16:35 15,8 C 64 % 998,8 hPa 0,0 mm 2,2 km/h (1 Bft) N-NE 22 0 min 0 W/m 9,0 C 15,8 C 4,3 km/h (1 Bft)
04/11/2011 16:40 15,6 C 64 % 998,8 hPa 0,0 mm 1,1 km/h (1 Bft) NE 45 0 min 0 W/m 8,8 C 15,6 C 4,3 km/h (1 Bft)
04/11/2011 16:45 15,6 C 64 % 998,7 hPa 0,0 mm 0,4 km/h (0 Bft) NE 45 0 min 0 W/m 8,8 C 15,6 C 0,4 km/h (0 Bft)
04/11/2011 16:50 15,5 C 65 % 998,7 hPa 0,0 mm 2,2 km/h (1 Bft) N 360 0 min 0 W/m 8,9 C 15,5 C 8,6 km/h (2 Bft)
04/11/2011 16:55 15,4 C 65 % 998,7 hPa 0,0 mm 2,5 km/h (1 Bft) NE 45 0 min 0 W/m 8,9 C 15,4 C 4,3 km/h (1 Bft)
04/11/2011 17:00 15,3 C 66 % 998,6 hPa 0,0 mm 1,8 km/h (1 Bft) N-NE 22 0 min 0 W/m 9,0 C 15,3 C 4,0 km/h (1 Bft)
04/11/2011 17:05 15,1 C 66 % 998,6 hPa 0,0 mm 1,8 km/h (1 Bft) N 360 0 min 0 W/m 8,8 C 15,1 C 6,1 km/h (2 Bft)
04/11/2011 17:10 14,9 C 67 % 998,6 hPa 0,0 mm 2,2 km/h (1 Bft) N 360 0 min 0 W/m 8,8 C 14,9 C 4,3 km/h (1 Bft)
04/11/2011 17:15 14,8 C 67 % 998,6 hPa 0,0 mm 4,3 km/h (1 Bft) N-NO 337 0 min 0 W/m 8,7 C 14,8 C 9,7 km/h (2 Bft)
04/11/2011 17:20 14,8 C 68 % 998,6 hPa 0,0 mm 2,2 km/h (1 Bft) NE 45 0 min 0 W/m 9,0 C 14,8 C 4,3 km/h (1 Bft)
04/11/2011 17:25 14,6 C 68 % 998,5 hPa 0,0 mm 2,5 km/h (1 Bft) N-NE 22 0 min 0 W/m 8,8 C 14,6 C 6,1 km/h (2 Bft)
04/11/2011 17:30 14,5 C 68 % 998,4 hPa 0,0 mm 1,4 km/h (1 Bft) N 360 0 min 0 W/m 8,7 C 14,5 C 4,7 km/h (1 Bft)
04/11/2011 17:35 14,3 C 69 % 998,4 hPa 0,0 mm 1,8 km/h (1 Bft) N-NE 22 0 min 0 W/m 8,7 C 14,3 C 4,3 km/h (1 Bft)
04/11/2011 17:40 14,3 C 69 % 998,3 hPa 0,0 mm 1,4 km/h (1 Bft) N 360 0 min 0 W/m 8,7 C 14,3 C 4,0 km/h (1 Bft)
04/11/2011 17:45 14,1 C 69 % 998,3 hPa 0,0 mm 1,8 km/h (1 Bft) N 360 0 min 0 W/m 8,5 C 14,1 C 3,2 km/h (1 Bft)
04/11/2011 17:50 13,9 C 69 % 998,2 hPa 0,0 mm 0,7 km/h (0 Bft) N 360 0 min 0 W/m 8,3 C 13,9 C 3,2 km/h (1 Bft)
04/11/2011 17:55 13,8 C 69 % 998,4 hPa 0,0 mm 3,6 km/h (1 Bft) N 360 0 min 0 W/m 8,2 C 13,8 C 10,1 km/h (2 Bft)
04/11/2011 18:00 13,8 C 69 % 998,4 hPa 0,0 mm 1,4 km/h (1 Bft) N-NE 22 0 min 0 W/m 8,2 C 13,8 C 4,0 km/h (1 Bft)
04/11/2011 18:05 13,6 C 70 % 998,3 hPa 0,0 mm 1,8 km/h (1 Bft) N-NO 337 0 min 0 W/m 8,2 C 13,6 C 4,3 km/h (1 Bft)
04/11/2011 18:10 13,6 C 70 % 998,4 hPa 0,0 mm 1,8 km/h (1 Bft) N 360 0 min 0 W/m 8,2 C 13,6 C 4,3 km/h (1 Bft)
04/11/2011 18:15 13,5 C 70 % 998,4 hPa 0,0 mm 0,0 km/h (0 Bft) N-NE 22 0 min 0 W/m 8,1 C 13,5 C 0,0 km/h (0 Bft)
04/11/2011 18:20 13,4 C 71 % 998,4 hPa 0,0 mm 3,6 km/h (1 Bft) N-NE 22 0 min 0 W/m 8,3 C 13,4 C 6,1 km/h (2 Bft)
04/11/2011 18:25 13,4 C 72 % 998,3 hPa 0,0 mm 0,0 km/h (0 Bft) N-NE 22 0 min 0 W/m 8,5 C 13,4 C 0,0 km/h (0 Bft)
04/11/2011 18:30 13,3 C 72 % 998,3 hPa 0,0 mm 2,5 km/h (1 Bft) NE 45 0 min 0 W/m 8,4 C 13,3 C 4,0 km/h (1 Bft)
04/11/2011 18:35 13,1 C 73 % 998,3 hPa 0,0 mm 0,0 km/h (0 Bft) N-NE 22 0 min 0 W/m 8,4 C 13,1 C 3,2 km/h (1 Bft)
04/11/2011 18:40 13,1 C 73 % 998,3 hPa 0,0 mm 1,8 km/h (1 Bft) N-NE 22 0 min 0 W/m 8,4 C 13,1 C 3,6 km/h (1 Bft)
04/11/2011 18:45 12,9 C 73 % 998,3 hPa 0,0 mm 1,4 km/h (1 Bft) N-NE 22 0 min 0 W/m 8,2 C 12,9 C 1,4 km/h (1 Bft)
04/11/2011 18:50 12,9 C 73 % 998,3 hPa 0,0 mm 0,0 km/h (0 Bft) N-NE 22 0 min 0 W/m 8,2 C 12,9 C 0,0 km/h (0 Bft)
04/11/2011 18:55 12,8 C 74 % 998,4 hPa 0,0 mm 0,0 km/h (0 Bft) N-NE 22 0 min 0 W/m 8,3 C 12,8 C 0,0 km/h (0 Bft)
04/11/2011 19:00 12,7 C 74 % 998,3 hPa 0,0 mm 1,1 km/h (1 Bft) N-NE 22 0 min 0 W/m 8,2 C 12,7 C 1,1 km/h (1 Bft)
04/11/2011 19:05 12,6 C 74 % 998,3 hPa 0,0 mm 5,4 km/h (2 Bft) N 360 0 min 0 W/m 8,1 C 12,6 C 8,6 km/h (2 Bft)
04/11/2011 19:10 12,6 C 74 % 998,2 hPa 0,0 mm 0,0 km/h (0 Bft) N-NE 22 0 min 0 W/m 8,1 C 12,6 C 1,4 km/h (1 Bft)
04/11/2011 19:15 12,6 C 74 % 998,2 hPa 0,0 mm 0,7 km/h (0 Bft) NE 45 0 min 0 W/m 8,1 C 12,6 C 3,6 km/h (1 Bft)
04/11/2011 19:20 12,6 C 74 % 998,3 hPa 0,0 mm 1,4 km/h (1 Bft) NE 45 0 min 0 W/m 8,1 C 12,6 C 6,8 km/h (2 Bft)
04/11/2011 19:25 12,5 C 75 % 998,2 hPa 0,0 mm 2,9 km/h (1 Bft) N-NE 22 0 min 0 W/m 8,2 C 12,5 C 4,0 km/h (1 Bft)
04/11/2011 19:30 12,5 C 75 % 998,4 hPa 0,0 mm 1,1 km/h (1 Bft) N-NE 22 0 min 0 W/m 8,2 C 12,5 C 1,1 km/h (1 Bft)
04/11/2011 19:35 12,5 C 75 % 998,4 hPa 0,0 mm 1,4 km/h (1 Bft) N-NE 22 0 min 0 W/m 8,2 C 12,5 C 4,0 km/h (1 Bft)
04/11/2011 19:40 12,5 C 75 % 998,3 hPa 0,0 mm 1,1 km/h (1 Bft) N-NE 22 0 min 0 W/m 8,2 C 12,5 C 4,0 km/h (1 Bft)
04/11/2011 19:45 12,5 C 75 % 998,4 hPa 0,0 mm 5,8 km/h (2 Bft) N 360 0 min 0 W/m 8,2 C 12,5 C 7,2 km/h (2 Bft)
04/11/2011 19:50 12,6 C 76 % 998,4 hPa 0,0 mm 3,2 km/h (1 Bft) N 360 0 min 0 W/m 8,5 C 12,6 C 9,0 km/h (2 Bft)
04/11/2011 19:55 12,6 C 76 % 998,4 hPa 0,0 mm 2,9 km/h (1 Bft) N-NE 22 0 min 0 W/m 8,5 C 12,6 C 2,9 km/h (1 Bft)
04/11/2011 20:00 12,6 C 76 % 998,2 hPa 0,0 mm 1,1 km/h (1 Bft) N-NE 22 0 min 0 W/m 8,5 C 12,6 C 1,1 km/h (1 Bft)
04/11/2011 20:05 12,6 C 76 % 997,2 hPa 0,0 mm 0,7 km/h (0 Bft) N 360 0 min 0 W/m 8,5 C 12,6 C 0,7 km/h (0 Bft)
04/11/2011 20:10 12,6 C 76 % 997,2 hPa 0,0 mm 3,6 km/h (1 Bft) N-NE 22 0 min 0 W/m 8,5 C 12,6 C 6,1 km/h (2 Bft)
04/11/2011 20:15 12,6 C 76 % 997,3 hPa 0,0 mm 4,0 km/h (1 Bft) N-NE 22 0 min 0 W/m 8,5 C 12,6 C 8,3 km/h (2 Bft)
04/11/2011 20:20 12,6 C 76 % 997,4 hPa 0,0 mm 0,7 km/h (0 Bft) N-NE 22 0 min 0 W/m 8,5 C 12,6 C 3,2 km/h (1 Bft)
04/11/2011 20:25 12,6 C 76 % 997,3 hPa 0,0 mm 2,9 km/h (1 Bft) N 360 0 min 0 W/m 8,5 C 12,6 C 6,5 km/h (2 Bft)
04/11/2011 20:30 12,6 C 76 % 997,2 hPa 0,0 mm 6,8 km/h (2 Bft) N-NE 22 0 min 0 W/m 8,5 C 12,6 C 10,8 km/h (2 Bft)
04/11/2011 20:35 12,6 C 76 % 997,1 hPa 0,0 mm 6,1 km/h (2 Bft) N-NE 22 0 min 0 W/m 8,5 C 12,6 C 9,7 km/h (2 Bft)
04/11/2011 20:40 12,7 C 76 % 997,1 hPa 0,0 mm 5,4 km/h (2 Bft) N-NE 22 0 min 0 W/m 8,6 C 12,7 C 11,5 km/h (2 Bft)
04/11/2011 20:45 12,8 C 76 % 997,1 hPa 0,0 mm 2,5 km/h (1 Bft) N-NE 22 0 min 0 W/m 8,7 C 12,8 C 3,2 km/h (1 Bft)
04/11/2011 20:50 12,8 C 76 % 997,0 hPa 0,0 mm 4,3 km/h (1 Bft) N 360 0 min 0 W/m 8,7 C 12,8 C 4,3 km/h (1 Bft)
04/11/2011 20:55 12,8 C 76 % 997,0 hPa 0,0 mm 4,7 km/h (1 Bft) N 360 0 min 0 W/m 8,7 C 12,8 C 9,0 km/h (2 Bft)
04/11/2011 21:00 12,9 C 76 % 997,0 hPa 0,0 mm 1,8 km/h (1 Bft) N-NE 22 0 min 0 W/m 8,8 C 12,9 C 3,6 km/h (1 Bft)
04/11/2011 21:05 12,9 C 76 % 996,8 hPa 0,0 mm 0,7 km/h (0 Bft) N-NE 22 0 min 0 W/m 8,8 C 12,9 C 3,2 km/h (1 Bft)
04/11/2011 21:10 12,9 C 77 % 996,8 hPa 0,0 mm 0,7 km/h (0 Bft) N-NE 22 0 min 0 W/m 9,0 C 12,9 C 0,7 km/h (0 Bft)
04/11/2011 21:15 12,8 C 77 % 996,8 hPa 0,0 mm 2,2 km/h (1 Bft) N-NE 22 0 min 0 W/m 8,9 C 12,8 C 6,5 km/h (2 Bft)
04/11/2011 21:20 12,8 C 78 % 996,7 hPa 0,0 mm 0,7 km/h (0 Bft) N-NO 337 0 min 0 W/m 9,1 C 12,8 C 0,7 km/h (0 Bft)
04/11/2011 21:25 12,8 C 78 % 996,7 hPa 0,0 mm 0,0 km/h (0 Bft) N 360 0 min 0 W/m 9,1 C 12,8 C 0,0 km/h (0 Bft)
04/11/2011 21:30 12,8 C 78 % 996,7 hPa 0,0 mm 0,0 km/h (0 Bft) N 360 0 min 0 W/m 9,1 C 12,8 C 0,0 km/h (0 Bft)
04/11/2011 21:35 12,8 C 78 % 996,8 hPa 0,0 mm 1,1 km/h (1 Bft) N-NE 22 0 min 0 W/m 9,1 C 12,8 C 4,0 km/h (1 Bft)
04/11/2011 21:40 12,8 C 79 % 996,8 hPa 0,0 mm 0,0 km/h (0 Bft) N-NE 22 0 min 0 W/m 9,2 C 12,8 C 0,0 km/h (0 Bft)
04/11/2011 21:45 12,7 C 79 % 996,8 hPa 0,0 mm 0,0 km/h (0 Bft) N-NE 22 0 min 0 W/m 9,2 C 12,7 C 3,2 km/h (1 Bft)
04/11/2011 21:50 12,6 C 80 % 996,7 hPa 0,0 mm 2,5 km/h (1 Bft) N-NE 22 0 min 0 W/m 9,2 C 12,6 C 3,6 km/h (1 Bft)
04/11/2011 21:55 12,6 C 80 % 996,8 hPa 0,0 mm 2,9 km/h (1 Bft) N-NE 22 0 min 0 W/m 9,2 C 12,6 C 6,8 km/h (2 Bft)
04/11/2011 22:00 12,6 C 81 % 996,8 hPa 0,0 mm 1,1 km/h (1 Bft) NE 45 0 min 0 W/m 9,4 C 12,6 C 1,1 km/h (1 Bft)
04/11/2011 22:05 12,6 C 81 % 996,7 hPa 0,0 mm 1,8 km/h (1 Bft) NE 45 0 min 0 W/m 9,4 C 12,6 C 3,2 km/h (1 Bft)
04/11/2011 22:10 12,6 C 81 % 996,6 hPa 0,0 mm 2,2 km/h (1 Bft) N-NE 22 0 min 0 W/m 9,4 C 12,6 C 2,2 km/h (1 Bft)
04/11/2011 22:15 12,6 C 82 % 996,6 hPa 0,0 mm 2,2 km/h (1 Bft) E-NE 67 0 min 0 W/m 9,6 C 12,6 C 2,2 km/h (1 Bft)
04/11/2011 22:20 12,6 C 82 % 996,5 hPa 0,0 mm 0,7 km/h (0 Bft) N-NE 22 0 min 0 W/m 9,6 C 12,6 C 4,3 km/h (1 Bft)
04/11/2011 22:25 12,6 C 83 % 996,4 hPa 0,0 mm 4,7 km/h (1 Bft) N-NE 22 0 min 0 W/m 9,8 C 12,6 C 6,5 km/h (2 Bft)
04/11/2011 22:30 12,6 C 84 % 996,3 hPa 0,0 mm 4,0 km/h (1 Bft) N-NE 22 0 min 0 W/m 10,0 C 12,6 C 7,6 km/h (2 Bft)
04/11/2011 22:35 12,6 C 84 % 996,3 hPa 0,0 mm 2,5 km/h (1 Bft) N-NE 22 0 min 0 W/m 10,0 C 12,6 C 4,3 km/h (1 Bft)
04/11/2011 22:40 12,6 C 85 % 996,2 hPa 0,0 mm 4,3 km/h (1 Bft) N-NE 22 0 min 0 W/m 10,1 C 12,6 C 9,7 km/h (2 Bft)
04/11/2011 22:45 12,6 C 85 % 996,1 hPa 0,0 mm 2,9 km/h (1 Bft) NE 45 0 min 0 W/m 10,1 C 12,6 C 4,0 km/h (1 Bft)
04/11/2011 22:50 12,6 C 86 % 996,1 hPa 0,0 mm 3,2 km/h (1 Bft) N-NE 22 0 min 0 W/m 10,3 C 12,6 C 7,2 km/h (2 Bft)
04/11/2011 22:55 12,6 C 86 % 995,9 hPa 0,0 mm 3,6 km/h (1 Bft) N-NE 22 0 min 0 W/m 10,3 C 12,6 C 7,9 km/h (2 Bft)
04/11/2011 23:00 12,6 C 86 % 995,8 hPa 0,0 mm 2,9 km/h (1 Bft) N 360 0 min 0 W/m 10,3 C 12,6 C 2,9 km/h (1 Bft)
04/11/2011 23:05 12,6 C 86 % 995,7 hPa 0,3 mm 2,9 km/h (1 Bft) N 360 0 min 0 W/m 10,3 C 12,6 C 7,6 km/h (2 Bft)
04/11/2011 23:10 12,5 C 87 % 995,7 hPa 0,0 mm 4,3 km/h (1 Bft) NE 45 0 min 0 W/m 10,4 C 12,5 C 7,2 km/h (2 Bft)
04/11/2011 23:15 12,4 C 87 % 995,6 hPa 0,0 mm 2,5 km/h (1 Bft) N-NE 22 0 min 0 W/m 10,3 C 12,4 C 3,6 km/h (1 Bft)
04/11/2011 23:20 12,4 C 87 % 995,6 hPa 0,0 mm 2,5 km/h (1 Bft) N 360 0 min 0 W/m 10,3 C 12,4 C 7,9 km/h (2 Bft)
04/11/2011 23:25 12,4 C 88 % 995,5 hPa 0,0 mm 0,0 km/h (0 Bft) N 360 0 min 0 W/m 10,5 C 12,4 C 3,6 km/h (1 Bft)
04/11/2011 23:30 12,4 C 88 % 995,6 hPa 0,3 mm 0,0 km/h (0 Bft) N-NE 22 0 min 0 W/m 10,5 C 12,4 C 0,0 km/h (0 Bft)
04/11/2011 23:35 12,3 C 88 % 995,5 hPa 0,3 mm 2,2 km/h (1 Bft) N-NE 22 0 min 0 W/m 10,4 C 12,3 C 4,0 km/h (1 Bft)
04/11/2011 23:40 12,3 C 88 % 995,6 hPa 0,0 mm 3,6 km/h (1 Bft) N 360 0 min 0 W/m 10,4 C 12,3 C 6,5 km/h (2 Bft)
04/11/2011 23:45 12,3 C 89 % 995,6 hPa 0,0 mm 1,4 km/h (1 Bft) NE 45 0 min 0 W/m 10,5 C 12,3 C 3,2 km/h (1 Bft)
04/11/2011 23:50 12,3 C 89 % 995,6 hPa 0,0 mm 5,0 km/h (1 Bft) N 360 0 min 0 W/m 10,5 C 12,3 C 11,2 km/h (2 Bft)
04/11/2011 23:55 12,3 C 89 % 995,6 hPa 0,0 mm 0,0 km/h (0 Bft) N-NE 22 0 min 0 W/m 10,5 C 12,3 C 0,0 km/h (0 Bft)
_ Min-Heure 08:45 13:35 23:35 - 23:55 - - - - 08:35 08:45 23:55
Minimum _ 9,1 C 51 % 995,5 hPa - 0,0 km/h (0 Bft) - - - - 7,0 C 9,1 C 0,0 km/h (0 Bft)
_ Max-Heure 13:40 00:00 11:35 23:30 09:05 - - 23:55 23:55 11:05 13:40 00:25
Maximum _ 20,3 C 90 % 1000,1 hPa 0,3 mm 8,6 km/h
E-SE (2 Bft)
- - 0 min 0 W/m 13,0 C 20,3 C 12,6 km/h
S-SE (3 Bft)
Moyenne _ 13,4 C 77 % 997,8 hPa #0,8 mm 2,4 km/h (1 Bft) N-NE - #0 min. 0 W/m 9,2 C 13,4 C 4,4 km/h (1 Bft)
Saint Bonnet de Bellac- Haute Vienne - France